| time (UTC) | temp F | wind direction | speed MPH | gust MPH | rain 1hr in | rain 24hr in | rain mn in | humidity % | barometer mb |
| 20260504211215 | 56 | 0.0 | 0.0 | 0.00 | 0.03 | 0.03 | 87 | 1011.3 | |
| 20260504210215 | 56 | 0.0 | 0.0 | 0.00 | 0.03 | 0.03 | 87 | 1011.3 | |
| 20260504205215 | 56 | 0.0 | 0.0 | 0.00 | 0.03 | 0.03 | 87 | 1011.4 | |
| 20260504204215 | 56 | 0.0 | 0.0 | 0.00 | 0.03 | 0.03 | 87 | 1011.4 | |
| 20260504203215 | 57 | 0.0 | 0.0 | 0.00 | 0.03 | 0.03 | 86 | 1011.4 | |
| 20260504202215 | 57 | 0.0 | 0.0 | 0.00 | 0.02 | 0.02 | 86 | 1011.4 | |
| 20260504201215 | 57 | 0.0 | 0.0 | 0.00 | 0.02 | 0.02 | 86 | 1011.3 | |
| 20260504200215 | 57 | 0.0 | 0.0 | 0.01 | 0.02 | 0.02 | 86 | 1011.2 | |
| 20260504195255 | 58 | 0.0 | 0.0 | 0.01 | 0.02 | 0.02 | 85 | 1011.2 | |
| 20260504194215 | 58 | 180 | 0.0 | 3.0 | 0.01 | 0.02 | 0.02 | 85 | 1011.1 |
| 20260504193215 | 58 | 162 | 1.0 | 2.0 | 0.01 | 0.03 | 0.02 | 85 | 1011.1 |
| 20260504192215 | 59 | 162 | 0.0 | 2.0 | 0.00 | 0.02 | 0.01 | 84 | 1011.1 |
| 20260504191215 | 59 | 178 | 1.0 | 3.0 | 0.00 | 0.02 | 0.01 | 83 | 1011.1 |
| 20260504190215 | 59 | 0.0 | 0.0 | 0.00 | 0.01 | 0.00 | 82 | 1011.0 | |
| 20260504185215 | 60 | 0.0 | 1.0 | 0.00 | 0.01 | 0.00 | 82 | 1011.1 | |
| 20260504184215 | 60 | 242 | 1.0 | 3.0 | 0.00 | 0.02 | 0.00 | 82 | 1011.0 |
| 20260504183215 | 60 | 0.0 | 0.0 | 0.00 | 0.03 | 0.00 | 80 | 1011.0 | |
| 20260504182215 | 61 | 0.0 | 0.0 | 0.00 | 0.03 | 0.00 | 79 | 1010.8 | |
| 20260504181215 | 61 | 0.0 | 0.0 | 0.00 | 0.03 | 0.00 | 79 | 1010.8 | |
| 20260504180215 | 62 | 173 | 1.0 | 3.0 | 0.00 | 0.03 | 0.00 | 78 | 1010.8 |
| 20260504175235 | 62 | 171 | 1.0 | 4.0 | 0.00 | 0.03 | 0.00 | 76 | 1010.8 |
| 20260504174215 | 63 | 0.0 | 1.0 | 0.00 | 0.03 | 0.00 | 74 | 1010.7 | |
| 20260504173215 | 63 | 167 | 0.0 | 3.0 | 0.00 | 0.03 | 0.00 | 73 | 1010.7 |
| 20260504172217 | 64 | 0.0 | 0.0 | 0.00 | 0.03 | 0.00 | 72 | 1010.8 | |
| 20260504171238 | 64 | 142 | 0.0 | 1.0 | 0.00 | 0.03 | 0.00 | 70 | 1010.7 |
| 20260504170217 | 65 | 142 | 0.0 | 2.0 | 0.00 | 0.03 | 0.00 | 69 | 1010.8 |
| 20260504160217 | 66 | 180 | 0.0 | 2.0 | 0.00 | 0.03 | 0.00 | 65 | 1011.0 |
| 20260504150217 | 67 | 0.0 | 1.0 | 0.00 | 0.03 | 0.00 | 60 | 1011.1 | |
| 20260504141237 | 68 | 180 | 0.0 | 3.0 | 0.00 | 0.03 | 0.00 | 57 | 1011.3 |
| 20260504140217 | 68 | 0.0 | 2.0 | 0.00 | 0.03 | 0.00 | 60 | 1011.4 | |
| 20260504130216 | 67 | 196 | 0.0 | 1.0 | 0.00 | 0.09 | 0.00 | 63 | 1011.8 |
| 20260504120216 | 68 | 178 | 1.0 | 3.0 | 0.00 | 0.17 | 0.00 | 61 | 1011.9 |
| 20260504110216 | 66 | 186 | 2.0 | 5.0 | 0.00 | 0.24 | 0.00 | 69 | 1012.2 |
| 20260504100216 | 63 | 0.0 | 2.0 | 0.00 | 0.25 | 0.00 | 77 | 1012.6 | |
| 20260504081216 | 59 | 0.0 | 2.0 | 0.00 | 0.25 | 0.00 | 89 | 1012.2 | |
| 20260504080216 | 58 | 184 | 0.0 | 3.0 | 0.00 | 0.25 | 0.00 | 90 | 1012.2 |
| 20260504070216 | 57 | 0.0 | 2.0 | 0.00 | 0.25 | 0.00 | 91 | 1011.8 | |
| 20260504060216 | 54 | 165 | 0.0 | 2.0 | 0.00 | 0.25 | 0.00 | 91 | 1011.3 |
| 20260504050216 | 51 | 0.0 | 0.0 | 0.00 | 0.25 | 0.00 | 90 | 1010.9 | |
| 20260504045216 | 50 | 0.0 | 0.0 | 0.00 | 0.25 | 0.00 | 90 | 1010.7 | |
| 20260504044216 | 50 | 0.0 | 0.0 | 0.00 | 0.25 | 0.00 | 90 | 1010.7 | |
| 20260504043216 | 50 | 0.0 | 0.0 | 0.00 | 0.25 | 0.00 | 90 | 1010.8 | |
| 20260504042216 | 49 | 0.0 | 0.0 | 0.00 | 0.25 | 0.00 | 90 | 1010.8 | |
| 20260504041256 | 49 | 0.0 | 0.0 | 0.00 | 0.25 | 0.00 | 90 | 1010.8 | |
| 20260504040215 | 49 | 0.0 | 0.0 | 0.00 | 0.25 | 0.00 | 90 | 1010.8 | |
| 20260504035215 | 49 | 0.0 | 0.0 | 0.00 | 0.25 | 0.00 | 90 | 1010.8 | |
| 20260504034216 | 49 | 0.0 | 0.0 | 0.00 | 0.25 | 0.00 | 90 | 1010.8 | |
| 20260504033215 | 49 | 0.0 | 0.0 | 0.00 | 0.25 | 0.00 | 90 | 1010.9 | |
| 20260504032216 | 49 | 0.0 | 0.0 | 0.00 | 0.25 | 0.00 | 90 | 1011.0 | |
| 20260504031256 | 49 | 0.0 | 0.0 | 0.00 | 0.25 | 0.00 | 90 | 1011.0 | |
| 20260504030215 | 49 | 0.0 | 0.0 | 0.00 | 0.25 | 0.00 | 90 | 1011.0 | |
| 20260504025216 | 49 | 0.0 | 0.0 | 0.00 | 0.25 | 0.00 | 90 | 1011.0 | |
| 20260504024216 | 49 | 0.0 | 0.0 | 0.00 | 0.25 | 0.00 | 90 | 1010.8 | |
| 20260504023215 | 49 | 0.0 | 0.0 | 0.00 | 0.25 | 0.00 | 90 | 1010.8 | |
| 20260504022216 | 49 | 0.0 | 0.0 | 0.00 | 0.25 | 0.00 | 90 | 1010.7 | |
| 20260504021215 | 49 | 0.0 | 0.0 | 0.00 | 0.25 | 0.00 | 90 | 1010.7 | |
| 20260504020215 | 50 | 0.0 | 0.0 | 0.00 | 0.25 | 0.00 | 90 | 1010.8 | |
| 20260504015215 | 50 | 0.0 | 0.0 | 0.00 | 0.25 | 0.00 | 90 | 1010.9 | |
| 20260504014215 | 50 | 0.0 | 0.0 | 0.00 | 0.25 | 0.00 | 90 | 1010.9 | |
| 20260504013215 | 51 | 0.0 | 0.0 | 0.00 | 0.25 | 0.00 | 90 | 1010.7 | |
| 20260504012235 | 51 | 0.0 | 0.0 | 0.00 | 0.25 | 0.00 | 90 | 1010.7 | |
| 20260504011215 | 50 | 0.0 | 0.0 | 0.00 | 0.25 | 0.00 | 90 | 1010.7 | |
| 20260504010215 | 51 | 0.0 | 0.0 | 0.00 | 0.25 | 0.00 | 90 | 1010.7 | |
| 20260504005215 | 51 | 0.0 | 0.0 | 0.00 | 0.25 | 0.00 | 90 | 1010.8 | |
| 20260504004215 | 51 | 0.0 | 0.0 | 0.00 | 0.25 | 0.00 | 90 | 1010.7 | |
| 20260504003216 | 51 | 0.0 | 0.0 | 0.00 | 0.25 | 0.00 | 90 | 1010.8 | |
| 20260504002215 | 52 | 0.0 | 0.0 | 0.00 | 0.25 | 0.00 | 90 | 1010.6 | |
| 20260504001215 | 52 | 0.0 | 0.0 | 0.00 | 0.25 | 0.00 | 90 | 1010.6 | |
| 20260504000216 | 52 | 0.0 | 0.0 | 0.00 | 0.25 | 0.00 | 90 | 1010.6 | |
| 20260503235215 | 51 | 0.0 | 0.0 | 0.00 | 0.25 | 0.00 | 89 | 1010.7 | |
| 20260503234215 | 52 | 0.0 | 0.0 | 0.00 | 0.25 | 0.00 | 89 | 1010.7 | |
| 20260503233215 | 52 | 0.0 | 0.0 | 0.00 | 0.25 | 0.00 | 89 | 1010.7 | |
| 20260503232215 | 52 | 0.0 | 0.0 | 0.00 | 0.25 | 0.00 | 89 | 1010.8 | |
| 20260503231215 | 52 | 0.0 | 0.0 | 0.00 | 0.25 | 0.00 | 89 | 1010.8 | |
| 20260503230215 | 52 | 0.0 | 0.0 | 0.00 | 0.25 | 0.00 | 89 | 1010.8 | |
| 20260503225215 | 52 | 0.0 | 0.0 | 0.00 | 0.25 | 0.00 | 89 | 1010.8 | |
| 20260503224215 | 52 | 0.0 | 0.0 | 0.00 | 0.25 | 0.00 | 89 | 1010.8 | |
| 20260503223215 | 53 | 0.0 | 0.0 | 0.00 | 0.25 | 0.00 | 89 | 1010.7 | |
| 20260503222235 | 53 | 0.0 | 0.0 | 0.00 | 0.25 | 0.00 | 89 | 1010.7 | |
| 20260503221215 | 53 | 0.0 | 0.0 | 0.00 | 0.25 | 0.00 | 89 | 1010.7 | |
| 20260503220215 | 54 | 0.0 | 0.0 | 0.00 | 0.25 | 0.00 | 89 | 1010.8 | |
| 20260503215215 | 54 | 0.0 | 0.0 | 0.00 | 0.25 | 0.25 | 89 | 1010.7 | |
| 20260503214216 | 55 | 0.0 | 0.0 | 0.00 | 0.25 | 0.25 | 89 | 1010.9 | |
| 20260503213215 | 55 | 0.0 | 0.0 | 0.00 | 0.25 | 0.25 | 89 | 1010.8 | |
| 20260503212215 | 55 | 0.0 | 0.0 | 0.00 | 0.25 | 0.25 | 89 | 1010.7 |